Find Starlink 32493

NORAD ID: 62025 Int'l Des: 2024-213 Owner: SPXS Country: US Constellation: starlink operational
LEOCIRCULAR

Current View

Loading 3D Globe...

About Starlink 32493

Starlink 32493 (NORAD 62025) is a starlink constellation satellite (v2 mini) launched Nov 18, 2024 by SPXS of US. It operates in LEO, CIRCULAR orbit with a mass of 730.00 kg.

Upcoming Passes

Passes for default location (London). Set your location on the main map for personalized predictions.

Altitude History

Loading altitude history...

Two-Line Element Set

1 62025U 24213T 26253.66835061 .00018763 00000-0 56513-3 0 9998
2 62025 53.1602 25.5361 0001242 97.5474 262.5670 15.34396086101523
Epoch: Sep 10, 2026 • Age: 18 hours

Current Status

Altitude 470.3 km
Apogee / Perigee N/A
Velocity 7.63 km/s
Sub-Earth Point -25.32°S, 79.85°E
Launch Date Nov 18, 2024
Age 1.8 years
Type internet

Technical Details

Classification Payload
Mass 730.00 kg
Dry Mass 700.00 kg
Total Mass 730.00 kg
Length 0.30 m
Diameter 4.10 m
Span 29.00 m
Shape Box + pan
Manufacturer SPXS
Bus Type Starlink V2M
Phase Status In Orbit
Owner/State SPXS/US

Most Searched